Location: Roland
(31.1349°N, 85.4372°W)
Time: 03:33:46
(UTC+00:00)

Vanguard 2 Rocket - Pass Details

Date: 05 December 2021
Orbit: 554 x 3324 km, 32.9° (Epoch: 16 January)

Event Time Altitude Azimuth Distance (km) Brightness Sun altitude
Rises 02:08:51 0° 280° (W) 3,838 10.9 -44.1°
Reaches altitude 10° 02:11:01 10° 280° (W) 3,129 10.2 -44.6°
Enters shadow 02:15:39 46° 284° (WNW) 1,943 8.6 -45.6°
